Location: York
(31.8935°S, 116.7682°E)
Time: 12:25:22
(UTC+08:00)

S-56A Canister/Altair - All Passes

Search period start: 06 October 2022 00:00
Search period end: 16 October 2022 00:00
Orbit: 637 x 2496 km, 38.9° (Epoch: 05 October)

Date Brightness Start Highest point End Pass type
(mag) Time Alt. Az. Time Alt. Az. Time Alt. Az.
06 Oct - 10:32:07 10° NNW 10:36:14 27° NE 10:41:27 10° E daylight
06 Oct - 12:34:02 10° WNW 12:39:40 77° SSW 12:48:12 10° ESE daylight
06 Oct - 14:37:59 10° WSW 14:45:06 55° S 14:55:58 10° ESE daylight
06 Oct - 16:41:59 10° WSW 16:51:17 77° SSE 17:04:59 10° ENE daylight
06 Oct - 18:46:26 10° WSW 18:57:26 57° NW 19:11:45 10° NE visible
06 Oct - 20:54:10 10° W 21:03:09 21° NW 21:13:00 10° N visible
07 Oct - 10:00:16 10° N 10:03:49 21° NE 10:08:01 10° E daylight
07 Oct - 12:01:39 10° WNW 12:06:57 84° SSW 12:14:47 10° ESE daylight
07 Oct - 14:05:29 10° WSW 14:12:05 53° S 14:22:07 10° ESE daylight
07 Oct - 16:09:25 10° WSW 16:18:03 72° SSE 16:31:03 10° ENE daylight
07 Oct - 18:13:35 10° WSW 18:24:04 62° NNW 18:38:18 10° NE daylight
07 Oct - 20:20:27 10° W 20:29:50 24° NW 20:40:30 10° N visible
08 Oct - 09:28:37 10° N 09:31:23 16° NE 09:34:28 10° E daylight
08 Oct - 11:29:19 10° WNW 11:34:19 86° NNE 11:41:29 10° ESE daylight
08 Oct - 13:33:02 10° W 13:39:08 52° S 13:48:21 10° ESE daylight
08 Oct - 15:36:53 10° WSW 15:44:54 67° SSE 15:57:06 10° E daylight
08 Oct - 17:40:50 10° WSW 17:50:45 67° NNW 18:04:44 10° NE daylight
08 Oct - 19:46:58 10° W 19:56:31 27° NW 20:07:49 10° N visible
09 Oct - 08:57:30 10° NNE 08:58:58 11° NE 09:00:29 10° ENE daylight
09 Oct - 10:56:59 10° NW 11:01:45 75° NNE 11:08:16 10° ESE daylight
09 Oct - 13:00:34 10° W 13:06:15 52° S 13:14:43 10° ESE daylight
09 Oct - 15:04:24 10° WSW 15:11:49 62° SSE 15:23:11 10° E daylight
09 Oct - 17:08:10 10° WSW 17:17:30 72° NNW 17:31:06 10° NE daylight
09 Oct - 19:13:43 10° W 19:23:13 30° NW 19:34:55 10° NNE visible
10 Oct - 10:24:40 10° NW 10:29:14 62° NNE 10:35:09 10° ESE daylight
10 Oct - 12:28:07 10° W 12:33:27 52° S 12:41:11 10° ESE daylight
10 Oct - 14:31:57 10° WSW 14:38:48 58° SSE 14:49:17 10° E daylight
10 Oct - 16:35:34 10° WSW 16:44:19 78° NNW 16:57:24 10° NE daylight
10 Oct - 18:40:37 10° W 18:49:57 33° NW 19:01:54 10° NNE visible
11 Oct - 09:52:23 10° NW 09:56:45 51° NNE 10:02:06 10° ESE daylight
11 Oct - 11:55:41 10° W 12:00:42 53° S 12:07:48 10° ESE daylight
11 Oct - 13:59:32 10° WSW 14:05:52 54° SSE 14:15:28 10° E daylight
11 Oct - 16:03:02 10° WSW 16:11:12 84° NNW 16:23:41 10° ENE daylight
11 Oct - 18:07:39 10° W 18:16:42 36° NW 18:28:44 10° NNE daylight
12 Oct - 09:20:07 10° NW 09:24:18 40° NE 09:29:07 10° ESE daylight
12 Oct - 11:23:14 10° W 11:28:01 55° SSW 11:34:32 10° ESE daylight
12 Oct - 13:27:07 10° WSW 13:32:59 50° S 13:41:42 10° E daylight
12 Oct - 15:30:33 10° WSW 15:38:09 89° SSE 15:49:55 10° ENE daylight
12 Oct - 17:34:49 10° W 17:43:31 40° NW 17:55:29 10° NNE daylight
12 Oct - 19:45:59 10° WNW 19:49:04 11° NW 19:52:19 10° NNW visible
13 Oct - 08:47:52 10° NNW 08:51:52 32° NE 08:56:12 10° E daylight
13 Oct - 10:50:46 10° W 10:55:22 59° SSW 11:01:24 10° ESE daylight
13 Oct - 12:54:43 10° WSW 13:00:10 47° S 13:08:04 10° E daylight
13 Oct - 14:58:07 10° WSW 15:05:11 83° SSE 15:16:11 10° ENE daylight
13 Oct - 17:02:04 10° WSW 17:10:22 43° NW 17:22:09 10° NNE daylight
13 Oct - 19:11:06 10° WNW 19:15:52 13° NW 19:21:08 10° NNW visible
14 Oct - 08:15:39 10° NNW 08:19:26 26° NE 08:23:17 10° E daylight
14 Oct - 10:18:17 10° WNW 10:22:48 65° SSW 10:28:23 10° ESE daylight
14 Oct - 12:22:19 10° WSW 12:27:23 44° S 12:34:31 10° ESE daylight
14 Oct - 14:25:43 10° WSW 14:32:17 76° SSE 14:42:27 10° ENE daylight
14 Oct - 16:29:25 10° WSW 16:37:17 47° NNW 16:48:46 10° NE daylight
14 Oct - 18:37:07 10° WNW 18:42:41 15° NW 18:49:07 10° N visible
15 Oct - 07:43:27 10° NNW 07:46:58 21° NE 07:50:23 10° E daylight
15 Oct - 09:45:47 10° WNW 09:50:15 73° SSW 09:55:29 10° ESE daylight
15 Oct - 11:49:53 10° WSW 11:54:39 42° S 12:01:07 10° ESE daylight
15 Oct - 13:53:20 10° WSW 13:59:27 69° SSE 14:08:45 10° ENE daylight
15 Oct - 15:56:50 10° WSW 16:04:16 52° NNW 16:15:20 10° NE daylight
15 Oct - 18:03:34 10° WNW 18:09:33 17° NW 18:16:43 10° N daylight
